,,Stat6,,Stat2,,Stat8,,Stat9,,Stat10,,Wind1,,Wind1,
time,status,PA1M_AVG,status,PR1M_SUM,status,RH1M_AVG,status,SR1M_AVG,status,TA1M_AVG,status,W1dAve1m,status,W1sAve1m,
2005-06-17, 00:00:01,VALID,916.799,VALID,0,VALID,96.2897,VALID,-0.101885,VALID,19.199,VALID,113,VALID,0.000571646,
2005-06-17, 00:01:01,VALID,916.783,VALID,0,VALID,95.8141,VALID,-0.0849042,VALID,19.1997,VALID,109,VALID,0.400694,
2005-06-17, 00:02:01,VALID,916.781,VALID,0,VALID,94.9418,VALID,-0.0679233,VALID,19.1891,VALID,95,VALID,0.503196,
2005-06-17, 00:03:00,VALID,916.773,VALID,0,VALID,94.3938,VALID,-0.0849042,VALID,19.267,VALID,95,VALID,0.449041,
2005-06-17, 00:04:01,VALID,916.779,VALID,0,VALID,94.3009,VALID,-0.101885,VALID,19.3311,VALID,95,VALID,0.235518,
2005-06-17, 00:05:00,VALID,916.784,VALID,0,VALID,94.5451,VALID,-0.0169808,VALID,19.3667,VALID,99,VALID,0.0944444,
2005-06-17, 00:06:01,VALID,916.791,VALID,0,VALID,94.6849,VALID,-0.101885,VALID,19.3411,VALID,219,VALID,0.58631,
2005-06-17, 00:07:01,VALID,916.798,VALID,0,VALID,94.3416,VALID,-0.101885,VALID,19.351,VALID,224,VALID,0.35831,
2005-06-17, 00:08:01,VALID,916.795,VALID,0,VALID,94.0733,VALID,-0.0679233,VALID,19.3962,VALID,224,VALID,0.00213068,
2005-06-17, 00:09:01,VALID,916.79,VALID,0,VALID,94.451,VALID,-0.118866,VALID,19.3994,VALID,224,VALID,0,
2005-06-17, 00:10:01,VALID,916.774,VALID,0,VALID,94.7206,VALID,-0.101885,VALID,19.3803,VALID,224,VALID,0,
2005-06-17, 00:11:01,VALID,916.756,VALID,0,VALID,94.9456,VALID,-0.101885,VALID,19.3259,VALID,224,VALID,0,
2005-06-17, 00:12:01,VALID,916.757,VALID,0,VALID,95.2216,VALID,-0.101885,VALID,19.2827,VALID,224,VALID,0,
2005-06-17, 00:13:00,VALID,916.743,VALID,0,VALID,95.495,VALID,-0.0849042,VALID,19.2737,VALID,224,VALID,0,
2005-06-17, 00:14:01,VALID,916.731,VALID,0,VALID,95.6743,VALID,-0.101885,VALID,19.2315,VALID,224,VALID,0.211787,
2005-06-17, 00:15:01,VALID,916.72,VALID,0,VALID,95.8624,VALID,-0.101885,VALID,19.1699,VALID,286,VALID,0.862891,
2005-06-17, 00:16:01,VALID,916.719,VALID,0,VALID,96.0939,VALID,-0.0509425,VALID,19.1176,VALID,49,VALID,1.01842,
2005-06-17, 00:17:01,VALID,916.722,VALID,0,VALID,96.1206,VALID,0,VALID,19.0753,VALID,58,VALID,0.693132,
2005-06-17, 00:18:01,VALID,916.727,VALID,0,VALID,96.1244,VALID,0,VALID,19.0276,VALID,61,VALID,0.0510671,
2005-06-17, 00:19:01,VALID,916.724,VALID,0,VALID,96.5237,VALID,0,VALID,18.985,VALID,61,VALID,0.225419,
2005-06-17, 00:20:01,VALID,916.703,VALID,0,VALID,96.9522,VALID,0,VALID,19.0214,VALID,61,VALID,0.103819,
2005-06-17, 00:21:01,VALID,916.704,VALID,0,VALID,97.0832,VALID,0,VALID,19.0341,VALID,61,VALID,0.105291,
2005-06-17, 00:22:01,VALID,916.693,VALID,0,VALID,97.2523,VALID,0,VALID,19.0465,VALID,61,VALID,0.346839,
2005-06-17, 00:23:01,VALID,916.691,VALID,0,VALID,97.3528,VALID,0.0169808,VALID,19.1014,VALID,61,VALID,0.311384,
2005-06-17, 00:24:01,VALID,916.709,VALID,0,VALID,97.2193,VALID,0,VALID,19.1168,VALID,61,VALID,0.0399926,
2005-06-17, 00:25:01,VALID,916.716,VALID,0,VALID,96.8225,VALID,0,VALID,19.1305,VALID,61,VALID,0,
2005-06-17, 00:26:01,VALID,916.692,VALID,0,VALID,96.9319,VALID,0,VALID,19.1069,VALID,61,VALID,0,
2005-06-17, 00:27:01,VALID,916.658,VALID,0,VALID,97.0578,VALID,0,VALID,19.1205,VALID,61,VALID,0.320508,
2005-06-17, 00:28:01,VALID,916.642,VALID,0,VALID,96.6229,VALID,0,VALID,19.1367,VALID,62,VALID,0.5875,
2005-06-17, 00:29:01,VALID,916.64,VALID,0,VALID,96.1969,VALID,-0.0169808,VALID,19.1754,VALID,61,VALID,0.511806,
2005-06-17, 00:30:01,VALID,916.628,VALID,0,VALID,95.7722,VALID,0.0169808,VALID,19.2045,VALID,61,VALID,0.602493,
2005-06-17, 00:31:01,VALID,916.631,VALID,0,VALID,95.3653,VALID,0.0169808,VALID,19.2206,VALID,61,VALID,0.181176,
2005-06-17, 00:32:01,VALID,916.632,VALID,0,VALID,95.1033,VALID,0,VALID,19.1821,VALID,61,VALID,0.00228659,
2005-06-17, 00:33:00,VALID,916.621,VALID,0,VALID,95.2737,VALID,0.0169808,VALID,19.1243,VALID,61,VALID,0,
2005-06-17, 00:34:00,VALID,916.615,VALID,0,VALID,95.5687,VALID,0.0169808,VALID,19.0915,VALID,61,VALID,0,
2005-06-17, 00:35:00,VALID,916.618,VALID,0,VALID,95.6984,VALID,0,VALID,19.0624,VALID,61,VALID,0,
2005-06-17, 00:36:00,VALID,916.615,VALID,0,VALID,95.7645,VALID,0,VALID,19.0339,VALID,61,VALID,0,
2005-06-17, 00:37:00,VALID,916.608,VALID,0,VALID,95.8675,VALID,0,VALID,19.0078,VALID,61,VALID,0,
2005-06-17, 00:38:00,VALID,916.601,VALID,0,VALID,95.968,VALID,0,VALID,18.9946,VALID,61,VALID,0,
2005-06-17, 00:39:00,VALID,916.607,VALID,0,VALID,96.0227,VALID,0,VALID,18.9822,VALID,61,VALID,0,
2005-06-17, 00:40:00,VALID,916.598,VALID,0,VALID,96.2325,VALID,0,VALID,18.9792,VALID,61,VALID,0.158798,
2005-06-17, 00:41:00,VALID,916.599,VALID,0,VALID,96.1943,VALID,0,VALID,18.9757,VALID,25,VALID,0.383557,
2005-06-17, 00:42:00,VALID,916.621,VALID,0,VALID,96.0011,VALID,0.0169808,VALID,18.9725,VALID,21,VALID,0.40952,
2005-06-17, 00:43:00,VALID,916.641,VALID,0,VALID,96.0456,VALID,0,VALID,18.9368,VALID,21,VALID,0.509896,
2005-06-17, 00:44:00,VALID,916.673,VALID,0,VALID,96.3635,VALID,0.0169808,VALID,18.9568,VALID,18,VALID,0.564986,
2005-06-17, 00:45:00,VALID,916.668,VALID,0,VALID,96.2643,VALID,0,VALID,18.979,VALID,16,VALID,0.508903,
2005-06-17, 00:46:00,VALID,916.682,VALID,0,VALID,96.1842,VALID,-0.0339617,VALID,19.0085,VALID,16,VALID,0.439977,
2005-06-17, 00:47:00,VALID,916.683,VALID,0,VALID,95.7989,VALID,-0.0339617,VALID,18.9951,VALID,16,VALID,0.67748,
2005-06-17, 00:48:00,VALID,916.671,VALID,0,VALID,96.1943,VALID,-0.0339617,VALID,18.9631,VALID,16,VALID,1.03516,
2005-06-17, 00:49:00,VALID,916.646,VALID,0,VALID,96.2795,VALID,-0.0339617,VALID,19.0406,VALID,15,VALID,0.74256,
2005-06-17, 00:50:00,VALID,916.622,VALID,0,VALID,95.7785,VALID,-0.0679233,VALID,19.0435,VALID,15,VALID,0.500694,
2005-06-17, 00:51:00,VALID,916.595,VALID,0,VALID,96.0163,VALID,-0.0849042,VALID,19.0406,VALID,15,VALID,0.660429,
2005-06-17, 00:52:00,VALID,916.559,VALID,0,VALID,96.1371,VALID,-0.0849042,VALID,19.0694,VALID,16,VALID,0.940972,
2005-06-17, 00:53:00,VALID,916.547,VALID,0,VALID,96.0926,VALID,-0.0849042,VALID,19.092,VALID,19,VALID,0.819425,
2005-06-17, 00:54:00,VALID,916.519,VALID,0,VALID,95.7315,VALID,-0.0339617,VALID,19.0825,VALID,16,VALID,0.605655,
2005-06-17, 00:55:00,VALID,916.49,VALID,0,VALID,96.1384,VALID,-0.0509425,VALID,19.0669,VALID,360,VALID,0.53218,
2005-06-17, 00:56:00,VALID,916.481,VALID,0,VALID,96.5924,VALID,-0.0509425,VALID,19.0731,VALID,4,VALID,0.838728,
2005-06-17, 00:57:00,VALID,916.453,VALID,0,VALID,96.4868,VALID,-0.0509425,VALID,19.086,VALID,13,VALID,0.725472,
2005-06-17, 00:58:00,VALID,916.43,VALID,0,VALID,96.5326,VALID,-0.0509425,VALID,19.0791,VALID,17,VALID,0.803013,
2005-06-17, 00:59:00,VALID,916.408,VALID,0,VALID,96.5847,VALID,-0.0679233,VALID,19.0629,VALID,12,VALID,0.670922,
2005-06-17, 01:00:00,VALID,916.397,VALID,0,VALID,96.7297,VALID,-0.0509425,VALID,19.0535,VALID,357,VALID,0.871289,
2005-06-17, 01:01:00,VALID,916.37,VALID,0,VALID,96.7818,VALID,-0.0169808,VALID,19.044,VALID,13,VALID,1.15904,
2005-06-17, 01:02:00,VALID,916.352,VALID,0,VALID,96.8657,VALID,-0.0679233,VALID,19.0373,VALID,20,VALID,1.29783,
2005-06-17, 01:03:00,VALID,916.341,VALID,0,VALID,96.8925,VALID,-0.0679233,VALID,19.0507,VALID,29,VALID,1.12233,
2005-06-17, 01:04:00,VALID,916.324,VALID,0,VALID,96.8238,VALID,-0.0339617,VALID,19.0756,VALID,35,VALID,1.10993,
2005-06-17, 01:05:00,VALID,916.301,VALID,0,VALID,96.5224,VALID,-0.0169808,VALID,19.1049,VALID,48,VALID,1.24273,
2005-06-17, 01:06:00,VALID,916.26,VALID,0,VALID,96.3724,VALID,-0.0679233,VALID,19.1213,VALID,52,VALID,1.3194,
2005-06-17, 01:07:00,VALID,916.224,VALID,0,VALID,96.3088,VALID,-0.0339617,VALID,19.0922,VALID,53,VALID,1.47347,
2005-06-17, 01:08:00,VALID,916.19,VALID,0,VALID,96.1206,VALID,-0.0339617,VALID,19.0632,VALID,41,VALID,1.4395,
2005-06-17, 01:09:00,VALID,916.149,VALID,0,VALID,96.1511,VALID,-0.0169808,VALID,19.0214,VALID,41,VALID,1.37645,
2005-06-17, 01:10:00,VALID,916.139,VALID,0,VALID,96.1575,VALID,-0.0339617,VALID,18.9829,VALID,27,VALID,0.992551,
2005-06-17, 01:11:00,VALID,916.141,VALID,0,VALID,96.235,VALID,-0.0509425,VALID,18.9988,VALID,16,VALID,1.18216,
2005-06-17, 01:12:00,VALID,916.133,VALID,0,VALID,95.9159,VALID,-0.0339617,VALID,19.1113,VALID,14,VALID,1.13709,
2005-06-17, 01:13:00,VALID,916.099,VALID,0,VALID,95.3182,VALID,-0.0509425,VALID,19.2084,VALID,15,VALID,0.990829,
2005-06-17, 01:14:00,VALID,916.038,VALID,0,VALID,94.9889,VALID,-0.0169808,VALID,19.2209,VALID,30,VALID,1.35398,
2005-06-17, 01:15:00,VALID,915.999,VALID,0,VALID,94.6633,VALID,-0.0169808,VALID,19.2827,VALID,29,VALID,1.40072,
2005-06-17, 01:16:00,VALID,915.979,VALID,0,VALID,94.2933,VALID,-0.0679233,VALID,19.3147,VALID,28,VALID,1.22712,
2005-06-17, 01:17:00,VALID,915.977,VALID,0,VALID,94.0708,VALID,-0.0339617,VALID,19.3152,VALID,12,VALID,1.12464,
2005-06-17, 01:18:00,VALID,915.94,VALID,0,VALID,94.1013,VALID,-0.0339617,VALID,19.2956,VALID,24,VALID,1.27623,
2005-06-17, 01:19:00,VALID,915.925,VALID,0,VALID,94.0847,VALID,-0.0169808,VALID,19.2825,VALID,16,VALID,1.14937,
2005-06-17, 01:20:00,VALID,915.9,VALID,0,VALID,94.2157,VALID,-0.0169808,VALID,19.276,VALID,20,VALID,1.19048,
2005-06-17, 01:21:00,VALID,915.892,VALID,0,VALID,94.1928,VALID,-0.0509425,VALID,19.2758,VALID,15,VALID,0.96689,
2005-06-17, 01:22:00,VALID,915.88,VALID,0,VALID,94.348,VALID,-0.0509425,VALID,19.2959,VALID,13,VALID,1.08958,
2005-06-17, 01:23:00,VALID,915.877,VALID,0,VALID,94.1712,VALID,-0.0169808,VALID,19.344,VALID,5,VALID,0.732922,
2005-06-17, 01:24:00,VALID,915.859,VALID,0,VALID,93.9296,VALID,-0.0679233,VALID,19.4022,VALID,349,VALID,0.638808,
2005-06-17, 01:25:00,VALID,915.841,VALID,0,VALID,93.6918,VALID,-0.0169808,VALID,19.4479,VALID,5,VALID,0.65407,
2005-06-17, 01:26:00,VALID,915.826,VALID,0,VALID,93.4998,VALID,-0.0339617,VALID,19.4732,VALID,21,VALID,0.691406,
2005-06-17, 01:27:00,VALID,915.8,VALID,0,VALID,93.2175,VALID,-0.0339617,VALID,19.4826,VALID,21,VALID,0.538881,
2005-06-17, 01:28:00,VALID,915.784,VALID,0,VALID,93.1832,VALID,-0.0509425,VALID,19.502,VALID,21,VALID,0.329514,
2005-06-17, 01:29:00,VALID,915.756,VALID,0,VALID,93.1361,VALID,-0.0339617,VALID,19.4983,VALID,20,VALID,0.410823,
2005-06-17, 01:30:00,VALID,915.729,VALID,0,VALID,93.0954,VALID,-0.0339617,VALID,19.5182,VALID,18,VALID,0.524926,
2005-06-17, 01:31:00,VALID,915.722,VALID,0,VALID,92.9022,VALID,0,VALID,19.5211,VALID,20,VALID,0.694754,
2005-06-17, 01:32:00,VALID,915.688,VALID,0,VALID,92.8297,VALID,-0.0679233,VALID,19.5184,VALID,20,VALID,0.681055,
2005-06-17, 01:33:00,VALID,915.655,VALID,0,VALID,92.8818,VALID,-0.0509425,VALID,19.4889,VALID,22,VALID,0.726953,
2005-06-17, 01:34:00,VALID,915.624,VALID,0,VALID,92.9085,VALID,-0.0509425,VALID,19.4859,VALID,29,VALID,0.831845,
2005-06-17, 01:35:00,VALID,915.593,VALID,0,VALID,92.9403,VALID,-0.0169808,VALID,19.4831,VALID,35,VALID,0.974564,
2005-06-17, 01:36:00,VALID,915.552,VALID,0,VALID,92.9212,VALID,-0.0509425,VALID,19.4732,VALID,45,VALID,1.13826,
2005-06-17, 01:37:00,VALID,915.55,VALID,0,VALID,92.7674,VALID,-0.0339617,VALID,19.4923,VALID,50,VALID,1.00345,
2005-06-17, 01:38:00,VALID,915.553,VALID,0,VALID,92.7101,VALID,-0.0339617,VALID,19.5085,VALID,53,VALID,0.662574,
2005-06-17, 01:39:00,VALID,915.579,VALID,0,VALID,92.7318,VALID,-0.0339617,VALID,19.4926,VALID,46,VALID,0.467478,
2005-06-17, 01:40:00,VALID,915.596,VALID,0,VALID,92.7343,VALID,-0.0509425,VALID,19.4466,VALID,46,VALID,0.278773,
2005-06-17, 01:41:00,VALID,915.6,VALID,0,VALID,92.9912,VALID,-0.0169808,VALID,19.4176,VALID,46,VALID,0.166193,
2005-06-17, 01:42:00,VALID,915.597,VALID,0,VALID,93.3765,VALID,0,VALID,19.4014,VALID,46,VALID,0,
2005-06-17, 01:43:00,VALID,915.604,VALID,0,VALID,93.4718,VALID,0,VALID,19.4052,VALID,46,VALID,0,
2005-06-17, 01:44:00,VALID,915.597,VALID,0,VALID,93.3205,VALID,0,VALID,19.3918,VALID,46,VALID,0,
2005-06-17, 01:45:00,VALID,915.595,VALID,0,VALID,93.2315,VALID,-0.0169808,VALID,19.4148,VALID,46,VALID,0,
2005-06-17, 01:46:00,VALID,915.579,VALID,0,VALID,93.1628,VALID,-0.0169808,VALID,19.4566,VALID,46,VALID,0.0524009,
2005-06-17, 01:47:00,VALID,915.586,VALID,0,VALID,92.9416,VALID,0,VALID,19.5177,VALID,46,VALID,0,
2005-06-17, 01:48:00,VALID,915.574,VALID,0,VALID,92.4991,VALID,-0.0169808,VALID,19.55,VALID,46,VALID,0,
2005-06-17, 01:49:00,VALID,915.556,VALID,0,VALID,92.6148,VALID,0.0169808,VALID,19.5529,VALID,46,VALID,0.406436,
2005-06-17, 01:50:00,VALID,915.542,VALID,0,VALID,92.7318,VALID,0,VALID,19.5045,VALID,41,VALID,1.19149,
2005-06-17, 01:51:00,VALID,915.54,VALID,0,VALID,92.2829,VALID,-0.0169808,VALID,19.5572,VALID,30,VALID,1.75538,
2005-06-17, 01:52:00,VALID,915.523,VALID,0,VALID,91.525,VALID,0,VALID,19.6761,VALID,34,VALID,2.09975,
2005-06-17, 01:53:00,VALID,915.525,VALID,0,VALID,91.0253,VALID,-0.0169808,VALID,19.7631,VALID,30,VALID,1.83129,
2005-06-17, 01:54:00,VALID,915.539,VALID,0,VALID,90.8409,VALID,-0.0509425,VALID,19.783,VALID,30,VALID,1.38481,
2005-06-17, 01:55:00,VALID,915.54,VALID,0,VALID,91.0087,VALID,-0.0169808,VALID,19.7705,VALID,9,VALID,0.70367,
2005-06-17, 01:56:00,VALID,915.544,VALID,0,VALID,91.3305,VALID,-0.0339617,VALID,19.7606,VALID,346,VALID,0.357955,
2005-06-17, 01:57:00,VALID,915.542,VALID,0,VALID,91.7679,VALID,-0.0339617,VALID,19.7507,VALID,346,VALID,0.181784,
2005-06-17, 01:58:00,VALID,915.514,VALID,0,VALID,91.8722,VALID,0,VALID,19.7278,VALID,17,VALID,0.570313,
2005-06-17, 01:59:00,VALID,915.479,VALID,0,VALID,91.5911,VALID,-0.0169808,VALID,19.7186,VALID,44,VALID,0.99782,
2005-06-17, 02:00:00,VALID,915.458,VALID,0,VALID,91.656,VALID,-0.0169808,VALID,19.699,VALID,66,VALID,1.42435,
2005-06-17, 02:01:00,VALID,915.444,VALID,0,VALID,91.9192,VALID,-0.0169808,VALID,19.6436,VALID,88,VALID,1.27378,
2005-06-17, 02:02:00,VALID,915.455,VALID,0,VALID,92.4787,VALID,-0.0169808,VALID,19.5631,VALID,106,VALID,0.946403,
2005-06-17, 02:03:00,VALID,915.445,VALID,0,VALID,93.1221,VALID,-0.0339617,VALID,19.4826,VALID,114,VALID,0.594271,
2005-06-17, 02:04:00,VALID,915.449,VALID,0,VALID,94.5591,VALID,-0.0339617,VALID,19.3763,VALID,138,VALID,1.04147,
2005-06-17, 02:05:00,VALID,915.429,VALID,0,VALID,95.4263,VALID,-0.0339617,VALID,19.2469,VALID,143,VALID,0.632068,
2005-06-17, 02:06:00,VALID,915.398,VALID,0,VALID,96.118,VALID,-0.0509425,VALID,19.1374,VALID,132,VALID,0.993786,
2005-06-17, 02:07:00,VALID,915.375,VALID,0,VALID,96.82,VALID,-0.0169808,VALID,19.0306,VALID,120,VALID,1.02697,
2005-06-17, 02:08:00,VALID,915.338,VALID,0,VALID,97.5054,VALID,-0.0509425,VALID,18.9179,VALID,110,VALID,1.41946,
2005-06-17, 02:09:00,VALID,915.32,VALID,0,VALID,98.1221,VALID,-0.0339617,VALID,18.821,VALID,104,VALID,1.24907,
2005-06-17, 02:10:00,VALID,915.294,VALID,0,VALID,98.6028,VALID,-0.0339617,VALID,18.7498,VALID,113,VALID,1.36663,
2005-06-17, 02:11:00,VALID,915.27,VALID,0,VALID,98.9283,VALID,-0.0509425,VALID,18.7078,VALID,108,VALID,1.27415,
2005-06-17, 02:12:00,VALID,915.24,VALID,0,VALID,98.9715,VALID,-0.0509425,VALID,18.708,VALID,94,VALID,0.976944,
2005-06-17, 02:13:00,VALID,915.227,VALID,0,VALID,99.0287,VALID,-0.0169808,VALID,18.7048,VALID,96,VALID,0.798828,
2005-06-17, 02:14:00,VALID,915.223,VALID,0,VALID,98.8889,VALID,-0.0339617,VALID,18.6949,VALID,86,VALID,1.04668,
2005-06-17, 02:15:00,VALID,915.203,VALID,0,VALID,98.7528,VALID,-0.0339617,VALID,18.7016,VALID,66,VALID,1.44438,
2005-06-17, 02:16:00,VALID,915.184,VALID,0,VALID,98.5951,VALID,-0.0169808,VALID,18.7085,VALID,76,VALID,1.08631,
2005-06-17, 02:17:00,VALID,915.157,VALID,0,VALID,98.3001,VALID,-0.0339617,VALID,18.7235,VALID,77,VALID,0.981908,
2005-06-17, 02:18:00,VALID,915.167,VALID,0,VALID,98.0789,VALID,-0.0339617,VALID,18.7758,VALID,77,VALID,0.799162,
2005-06-17, 02:19:00,VALID,915.162,VALID,0,VALID,97.7953,VALID,-0.0339617,VALID,18.8111,VALID,62,VALID,0.765253,
2005-06-17, 02:20:00,VALID,915.151,VALID,0,VALID,97.6224,VALID,-0.0509425,VALID,18.8337,VALID,69,VALID,0.906445,
2005-06-17, 02:21:00,VALID,915.131,VALID,0,VALID,97.471,VALID,0,VALID,18.8501,VALID,86,VALID,0.826029,
2005-06-17, 02:22:00,VALID,915.113,VALID,0,VALID,97.3146,VALID,0,VALID,18.892,VALID,91,VALID,0.550781,
2005-06-17, 02:23:00,VALID,915.097,VALID,0,VALID,97.0527,VALID,0,VALID,18.9241,VALID,80,VALID,0.728087,
2005-06-17, 02:24:00,VALID,915.079,VALID,0,VALID,96.7895,VALID,0,VALID,18.9368,VALID,83,VALID,1.20852,
2005-06-17, 02:25:00,VALID,915.041,VALID,0,VALID,96.3126,VALID,-0.0169808,VALID,18.9981,VALID,76,VALID,1.3099,
2005-06-17, 02:26:00,VALID,915.022,VALID,0,VALID,95.7162,VALID,0,VALID,19.0885,VALID,67,VALID,0.918069,
2005-06-17, 02:27:00,VALID,914.986,VALID,0,VALID,95.4161,VALID,-0.0339617,VALID,19.1275,VALID,55,VALID,0.847479,
2005-06-17, 02:28:00,VALID,914.996,VALID,0,VALID,95.3805,VALID,0,VALID,19.1369,VALID,62,VALID,0.892149,
2005-06-17, 02:29:00,VALID,914.988,VALID,0,VALID,95.2292,VALID,0,VALID,19.1598,VALID,78,VALID,0.732701,
2005-06-17, 02:30:00,VALID,914.976,VALID,0,VALID,95.0295,VALID,-0.0169808,VALID,19.199,VALID,75,VALID,0.917259,
2005-06-17, 02:31:00,VALID,914.959,VALID,0,VALID,94.8185,VALID,-0.0339617,VALID,19.2243,VALID,99,VALID,1.06108,
2005-06-17, 02:32:00,VALID,914.964,VALID,0,VALID,94.5222,VALID,-0.0169808,VALID,19.2628,VALID,102,VALID,1.17873,
2005-06-17, 02:33:00,VALID,914.969,VALID,0,VALID,94.306,VALID,-0.0169808,VALID,19.3249,VALID,119,VALID,0.852134,
2005-06-17, 02:34:00,VALID,914.982,VALID,0,VALID,94.306,VALID,0,VALID,19.3537,VALID,130,VALID,0.70332,
2005-06-17, 02:35:00,VALID,915.002,VALID,0,VALID,94.7422,VALID,-0.0169808,VALID,19.3602,VALID,148,VALID,0.980273,
2005-06-17, 02:36:00,VALID,915.02,VALID,0,VALID,95.3996,VALID,0,VALID,19.3147,VALID,148,VALID,0.919271,
2005-06-17, 02:37:00,VALID,915.03,VALID,0,VALID,96.0011,VALID,-0.0509425,VALID,19.208,VALID,153,VALID,0.79127,
2005-06-17, 02:38:00,VALID,915.019,VALID,0,VALID,96.5199,VALID,-0.0339617,VALID,19.131,VALID,143,VALID,0.763849,
2005-06-17, 02:39:00,VALID,915.016,VALID,0,VALID,96.984,VALID,-0.0169808,VALID,19.0406,VALID,159,VALID,0.904018,
2005-06-17, 02:40:00,VALID,914.993,VALID,0,VALID,97.4342,VALID,-0.0509425,VALID,18.9603,VALID,157,VALID,1.09766,
2005-06-17, 02:41:00,VALID,914.992,VALID,0,VALID,97.9085,VALID,0,VALID,18.8791,VALID,158,VALID,0.967988,
2005-06-17, 02:42:00,VALID,914.987,VALID,0,VALID,98.3027,VALID,-0.0679233,VALID,18.818,VALID,149,VALID,1.06324,
2005-06-17, 02:43:00,VALID,914.979,VALID,0,VALID,98.5443,VALID,-0.0169808,VALID,18.7696,VALID,154,VALID,1.24349,
2005-06-17, 02:44:00,VALID,914.986,VALID,0,VALID,98.6295,VALID,0,VALID,18.747,VALID,153,VALID,0.978766,
2005-06-17, 02:45:00,VALID,914.973,VALID,0,VALID,98.5761,VALID,0,VALID,18.7398,VALID,155,VALID,1.13899,
2005-06-17, 02:46:00,VALID,914.959,VALID,0,VALID,98.4057,VALID,0,VALID,18.7627,VALID,152,VALID,1.05742,
2005-06-17, 02:47:00,VALID,914.97,VALID,0,VALID,98.1183,VALID,0,VALID,18.7883,VALID,151,VALID,1.16166,
2005-06-17, 02:48:00,VALID,914.968,VALID,0,VALID,97.7279,VALID,-0.0169808,VALID,18.824,VALID,147,VALID,0.959413,
2005-06-17, 02:49:00,VALID,914.969,VALID,0,VALID,97.2688,VALID,0,VALID,18.859,VALID,147,VALID,0.950817,
2005-06-17, 02:50:00,VALID,914.954,VALID,0,VALID,96.8174,VALID,0,VALID,18.9211,VALID,146,VALID,1.01523,
2005-06-17, 02:51:00,VALID,914.978,VALID,0,VALID,96.3762,VALID,0,VALID,18.9688,VALID,138,VALID,0.811942,
2005-06-17, 02:52:00,VALID,914.987,VALID,0,VALID,96.057,VALID,0,VALID,19.0207,VALID,135,VALID,0.676235,
2005-06-17, 02:53:00,VALID,914.99,VALID,0,VALID,95.7912,VALID,0.0169808,VALID,19.0398,VALID,135,VALID,0.606585,
2005-06-17, 02:54:00,VALID,914.983,VALID,0,VALID,95.5941,VALID,0,VALID,19.0694,VALID,129,VALID,0.442587,
2005-06-17, 02:55:00,VALID,914.981,VALID,0,VALID,95.3665,VALID,-0.0509425,VALID,19.086,VALID,111,VALID,0.512767,
2005-06-17, 02:56:00,VALID,914.969,VALID,0,VALID,95.1605,VALID,0,VALID,19.1051,VALID,111,VALID,0.541602,
2005-06-17, 02:57:00,VALID,914.976,VALID,0,VALID,94.9533,VALID,0,VALID,19.1113,VALID,112,VALID,0.667969,
2005-06-17, 02:58:00,VALID,914.983,VALID,0,VALID,94.6277,VALID,0,VALID,19.1501,VALID,116,VALID,0.811738,
2005-06-17, 02:59:00,VALID,914.971,VALID,0,VALID,94.3302,VALID,-0.0169808,VALID,19.1921,VALID,118,VALID,0.248857,
2005-06-17, 03:00:00,VALID,914.96,VALID,0,VALID,94.1509,VALID,-0.0339617,VALID,19.1988,VALID,118,VALID,0.000710227,
2005-06-17, 03:01:00,VALID,914.95,VALID,0,VALID,94.0631,VALID,-0.0169808,VALID,19.1953,VALID,118,VALID,0.000347222,
2005-06-17, 03:02:00,VALID,914.919,VALID,0,VALID,94.0975,VALID,-0.0169808,VALID,19.1593,VALID,118,VALID,0,
2005-06-17, 03:03:00,VALID,914.896,VALID,0,VALID,94.2412,VALID,0,VALID,19.1208,VALID,118,VALID,0.271391,
2005-06-17, 03:04:00,VALID,914.875,VALID,0,VALID,94.6799,VALID,-0.0339617,VALID,19.0632,VALID,79,VALID,0.528525,
2005-06-17, 03:05:00,VALID,914.855,VALID,0,VALID,94.9965,VALID,0,VALID,19.0212,VALID,67,VALID,0.616815,
2005-06-17, 03:06:00,VALID,914.819,VALID,0,VALID,95.1198,VALID,0,VALID,18.9531,VALID,63,VALID,0.709449,
2005-06-17, 03:07:00,VALID,914.811,VALID,0,VALID,95.4314,VALID,-0.0339617,VALID,18.892,VALID,58,VALID,0.807091,
2005-06-17, 03:08:00,VALID,914.783,VALID,0,VALID,95.9883,VALID,-0.0169808,VALID,18.8337,VALID,58,VALID,0.856105,
2005-06-17, 03:09:00,VALID,914.776,VALID,0,VALID,96.2757,VALID,0,VALID,18.8178,VALID,58,VALID,0.748264,
2005-06-17, 03:10:00,VALID,914.782,VALID,0,VALID,96.3673,VALID,0,VALID,18.8143,VALID,68,VALID,0.701823,
2005-06-17, 03:11:00,VALID,914.784,VALID,0,VALID,96.2414,VALID,-0.0169808,VALID,18.8307,VALID,87,VALID,0.850632,
2005-06-17, 03:12:00,VALID,914.775,VALID,0,VALID,96.0379,VALID,0,VALID,18.8498,VALID,112,VALID,0.910442,
2005-06-17, 03:13:00,VALID,914.774,VALID,0,VALID,95.9388,VALID,-0.0339617,VALID,18.857,VALID,130,VALID,0.838986,
2005-06-17, 03:14:00,VALID,914.775,VALID,0,VALID,96.4258,VALID,0,VALID,18.8208,VALID,134,VALID,1.47042,
2005-06-17, 03:15:00,VALID,914.783,VALID,0,VALID,97.1264,VALID,-0.0169808,VALID,18.7957,VALID,117,VALID,1.25521,
2005-06-17, 03:16:00,VALID,914.766,VALID,0,VALID,97.5829,VALID,-0.0679233,VALID,18.7177,VALID,112,VALID,0.861793,
2005-06-17, 03:17:00,VALID,914.744,VALID,0,VALID,97.7877,VALID,0,VALID,18.6499,VALID,105,VALID,0.920573,
2005-06-17, 03:18:00,VALID,914.737,VALID,0,VALID,97.9123,VALID,0,VALID,18.6077,VALID,101,VALID,1.22354,
2005-06-17, 03:19:00,VALID,914.737,VALID,0,VALID,97.8334,VALID,0.0169808,VALID,18.595,VALID,107,VALID,0.809152,
2005-06-17, 03:20:00,VALID,914.728,VALID,0,VALID,97.9352,VALID,-0.0169808,VALID,18.5692,VALID,105,VALID,0.815625,
2005-06-17, 03:21:00,VALID,914.705,VALID,0,VALID,98.2149,VALID,0,VALID,18.5469,VALID,103,VALID,0.898264,
2005-06-17, 03:22:00,VALID,914.675,VALID,0,VALID,98.4476,VALID,0,VALID,18.5208,VALID,94,VALID,0.997852,
2005-06-17, 03:23:00,VALID,914.677,VALID,0,VALID,98.6358,VALID,-0.0169808,VALID,18.5017,VALID,112,VALID,0.842076,
2005-06-17, 03:24:00,VALID,914.683,VALID,0,VALID,98.7108,VALID,-0.0339617,VALID,18.4853,VALID,113,VALID,1.01758,
2005-06-17, 03:25:00,VALID,914.709,VALID,0,VALID,98.6956,VALID,0,VALID,18.4788,VALID,122,VALID,0.710938,
2005-06-17, 03:26:00,VALID,914.712,VALID,0,VALID,98.6358,VALID,-0.0169808,VALID,18.4885,VALID,128,VALID,0.860119,
2005-06-17, 03:27:00,VALID,914.712,VALID,0,VALID,98.5926,VALID,0,VALID,18.495,VALID,109,VALID,1.14482,
2005-06-17, 03:28:00,VALID,914.735,VALID,0,VALID,98.3268,VALID,0,VALID,18.515,VALID,101,VALID,1.12595,
2005-06-17, 03:29:00,VALID,914.763,VALID,0,VALID,98.0585,VALID,0,VALID,18.5113,VALID,103,VALID,0.993304,
2005-06-17, 03:30:00,VALID,914.79,VALID,0,VALID,98.0077,VALID,0,VALID,18.518,VALID,106,VALID,1.01777,
2005-06-17, 03:31:00,VALID,914.778,VALID,0,VALID,97.8703,VALID,-0.0339617,VALID,18.528,VALID,113,VALID,0.710938,
2005-06-17, 03:32:00,VALID,914.765,VALID,0,VALID,97.8563,VALID,-0.101885,VALID,18.5545,VALID,117,VALID,0.816406,
2005-06-17, 03:33:00,VALID,914.76,VALID,0,VALID,97.7851,VALID,-0.101885,VALID,18.5674,VALID,120,VALID,0.842634,
2005-06-17, 03:34:00,VALID,914.763,VALID,0,VALID,97.7063,VALID,-0.101885,VALID,18.59,VALID,114,VALID,0.6163,
2005-06-17, 03:35:00,VALID,914.743,VALID,0,VALID,97.5956,VALID,-0.101885,VALID,18.6061,VALID,123,VALID,0.762091,